Terug naar catalogus

FREGAT DEB

LostUNKNOWN
NORAD 46257·DEBRIS·🇷🇺 Russia

Gelanceerd Jul 18, 2011 vanaf Baikonur Cosmodrome

Loading…

Volgende Passages (komende 24 uur)

TLE

VerouderdSource: Space-Track

Epoch: Aug 28, 2020, 07:12 UTC

1 46257U 11037KT  20241.30045476 -.00008515  00000-0 -11714+0 0  9998
2 46257  51.9814 247.6278 1899603 139.3785 236.5480  9.69224664   772

Volg FREGAT DEB in realtime met AllMySat

Download on the App Store